Weather History for Fort Stockton, TX

Change the Weather History Date:

Tuesday, December 11, 2012

  Actual Average Record
Temperature  
Mean Temperature 42 °F -  
Max Temperature 55 °F 60 °F 78 °F (2004)
Min Temperature 30 °F 36 °F 28 °F (1997)
Degree Days  
Heating Degree Days 22    
Moisture  
Dew Point 11 °F    
Average Humidity 31    
Maximum Humidity 48    
Minimum Humidity 15    
Precipitation  
Precipitation 0.00 in - - ()
Sea Level Pressure  
Sea Level Pressure 30.04 in    
Wind  
Wind Speed 8 mph (WSW)    
Max Wind Speed 12 mph    
Max Gust Speed -    
Visibility 10 miles    
Events      
Averages and records for this station are not official NWS values.
T = Trace of Precipitation, MM = Missing Value Source: NWS Daily Summary

Daily Weather History Graph

Daily Weather History Graph

Search for Another Location

Airport:

Trip Planner

Search our weather history database for the weather conditions in past years. The results will help you decide how hot, cold, wet, or windy it might be!

Date:

Astronomy

Dec. 11, 2012 Rise Set
Actual Time 7:39 AM CST 5:50 PM CST
Civil Twilight 7:13 AM CST 6:17 PM CST
Nautical Twilight 6:43 AM CST 6:47 PM CST
Astronomical Twilight 6:13 AM CST 7:16 PM CST
Moon 5:40 AM CST (12/11) 4:29 PM CST (12/11)
Length of Visible Light 11h 03m
Length of Day
10h 10m
Waning Crescent, 4% of the Moon is Illuminated
Dec 11
Waning Crescent
Dec 13
New
Dec 19
First Quarter
Dec 28
Full
Jan 4
Last Quarter

Hourly Weather History & Observations

Time (CST) Temp. Windchill Dew Point Humidity Pressure Visibility Wind Dir Wind Speed Gust Speed Precip Events Conditions
12:53 AM 33.1 °F 25.5 °F 12.9 °F 43% 30.01 in 10.0 mi South 9.2 mph - N/A   Clear
1:53 AM 30.0 °F 21.1 °F 12.0 °F 47% 30.00 in 10.0 mi South 10.4 mph - N/A   Clear
2:53 AM 32.0 °F 24.8 °F 14.0 °F 48% 29.98 in 10.0 mi South 8.1 mph - N/A   Clear
3:53 AM 32.0 °F 26.4 °F 14.0 °F 48% 29.98 in 10.0 mi SSW 5.8 mph - N/A   Clear
4:53 AM 30.9 °F 21.7 °F 12.9 °F 47% 29.99 in 10.0 mi SW 11.5 mph - N/A   Clear
5:53 AM 30.9 °F 22.2 °F 12.0 °F 46% 30.01 in 10.0 mi SW 10.4 mph - N/A   Clear
6:53 AM 30.9 °F 22.2 °F 10.9 °F 43% 30.02 in 10.0 mi SSW 10.4 mph - N/A   Clear
7:53 AM 32.0 °F 23.0 °F 10.9 °F 42% 30.05 in 10.0 mi SSW 11.5 mph - N/A   Clear
8:53 AM 39.9 °F 34.5 °F 12.0 °F 32% 30.06 in 10.0 mi SW 8.1 mph - N/A   Clear
9:53 AM 43.0 °F 37.7 °F 12.0 °F 28% 30.07 in 10.0 mi WSW 9.2 mph - N/A   Clear
10:53 AM 48.9 °F - 12.0 °F 23% 30.07 in 10.0 mi NW 5.8 mph - N/A   Clear
11:53 AM 51.1 °F - 7.0 °F 17% 30.06 in 10.0 mi NW 6.9 mph - N/A   Clear
12:53 PM 53.1 °F - 6.1 °F 15% 30.04 in 10.0 mi NNW 9.2 mph - N/A   Clear
1:53 PM 55.0 °F - 10.9 °F 17% 30.01 in 10.0 mi North 9.2 mph - N/A   Clear
2:53 PM 55.0 °F - 10.9 °F 17% 29.99 in 10.0 mi Variable 6.9 mph - N/A   Clear
3:53 PM 55.0 °F - 10.0 °F 17% 29.99 in 10.0 mi North 8.1 mph - N/A   Clear
4:53 PM 54.0 °F - 10.0 °F 17% 30.00 in 10.0 mi NNW 11.5 mph - N/A   Clear
5:53 PM 50.0 °F - 10.0 °F 20% 30.02 in 10.0 mi NNW 3.5 mph - N/A   Clear
6:53 PM 46.9 °F - 10.0 °F 22% 30.05 in 10.0 mi NNW 3.5 mph - N/A   Clear
7:53 PM 43.0 °F - 10.9 °F 27% 30.09 in 10.0 mi Calm Calm - N/A   Clear
8:53 PM 41.0 °F 39.0 °F 12.0 °F 31% 30.10 in 10.0 mi South 3.5 mph - N/A   Clear
9:53 PM 37.9 °F 33.5 °F 10.9 °F 33% 30.12 in 10.0 mi SSW 5.8 mph - N/A   Clear
10:53 PM 36.0 °F 28.5 °F 10.0 °F 34% 30.12 in 10.0 mi SW 10.4 mph - N/A   Clear
11:53 PM 34.0 °F 29.8 °F 10.0 °F 37% 30.12 in 10.0 mi SSW 4.6 mph - N/A   Clear